SLG Weather Reports


time (UTC)temp
C
wind
direction
speed
KPH
gust
KPH
rain 1hr
cm
rain 24hr
cm
rain mn
cm
humidity
%
barometer
mb
20260507150210 17 305 3.2 0.0 0.00 0.00 0.08 56 1012.5
20260507143212 17 289 6.4 0.0 0.00 0.00 0.08 62 1012.6
20260507140210 15 355 17.7 0.0 0.00 0.00 0.08 70 1012.7
20260507133210 13 310 17.7 0.0 0.00 0.00 0.08 76 1013.0
20260507130210 12 322 12.9 0.0 0.00 0.00 0.08 83 1012.8
20260507123210 12 290 22.5 0.0 0.00 0.00 0.05 78 1013.0
20260507120211 13 28 22.5 0.0 0.00 0.00 0.05 76 1012.6
20260507113210 12 312 0.0 0.0 0.00 0.00 0.05 79 1012.7
20260507110210 12 326 0.0 0.0 0.00 0.00 0.05 75 1012.6
20260507103216 12 305 8.0 0.0 0.00 0.00 0.05 74 1012.7
20260507100212 12 223 6.4 0.0 0.00 0.00 0.05 78 1012.5
20260507093210 11 246 11.3 0.0 0.00 0.00 0.05 83 1012.3
20260507090211 11 244 16.1 0.0 0.00 0.00 0.05 88 1012.2
20260507083212 10 298 14.5 0.0 0.00 0.00 0.05 91 1012.0
20260507080211 9 277 12.9 0.0 0.00 0.00 0.05 92 1012.1
20260507073212 9 262 14.5 0.0 0.00 0.00 0.05 92 1011.8
20260507070212 8 273 12.9 0.0 0.00 0.00 0.05 92 1011.4
20260507063211 8 268 11.3 0.0 0.00 0.00 0.05 91 1011.3
20260507060211 8 252 11.3 0.0 0.00 0.00 0.00 91 1011.1
20260507053211 8 291 12.9 0.0 0.00 0.00 0.00 91 1010.9
20260507050213 8 272 14.5 0.0 0.00 0.00 0.00 91 1010.5
20260507043211 7 279 11.3 0.0 0.00 0.00 0.00 91 1010.1
20260507040216 7 286 16.1 0.0 0.00 0.00 0.00 91 1009.8
20260507033211 7 253 14.5 0.0 0.00 0.00 0.00 91 1009.7
20260507030211 7 238 17.7 0.0 0.00 0.00 0.00 92 1009.5
20260507023211 7 251 11.3 0.0 0.00 0.00 0.00 91 1009.3
20260507020211 7 227 11.3 0.0 0.00 0.00 0.00 91 1009.3
20260507013212 7 241 1.6 0.0 0.00 0.00 0.00 91 1009.2
20260507010211 7 244 12.9 0.0 0.00 0.00 0.00 91 1009.0
20260507003209 7 202 0.0 0.0 0.00 0.00 0.00 91 1008.8
20260507000209 7 209 0.0 0.0 0.00 0.00 0.00 91 1008.8
20260506233209 7 242 8.0 0.0 0.00 0.00 0.00 91 1008.8
20260506230209 7 238 4.8 0.0 0.00 0.00 0.00 91 1008.6
20260506223209 7 228 8.0 0.0 0.00 0.00 0.00 91 1008.5
20260506213209 8 239 9.7 0.0 0.00 0.00 0.51 91 1008.1
20260506210210 8 249 12.9 0.0 0.00 0.00 0.51 91 1008.1
20260506203210 8 273 14.5 0.0 0.00 0.00 0.51 91 1008.0
20260506200210 8 250 12.9 0.0 0.00 0.00 0.51 90 1007.8
20260506193215 8 282 14.5 0.0 0.00 0.00 0.51 90 1007.4
20260506190211 8 300 12.9 0.0 0.00 0.00 0.51 90 1007.1
20260506183209 8 286 12.9 0.0 0.00 0.00 0.51 90 1006.7
20260506180216 9 254 17.7 0.0 0.00 0.00 0.51 91 1006.6
20260506173210 9 232 20.9 0.0 0.00 0.00 0.51 91 1006.3
20260506170215 9 289 0.0 0.0 0.00 0.00 0.51 90 1005.7
20260506163210 9 284 14.5 0.0 0.00 0.00 0.51 90 1005.8
20260506160210 9 273 14.5 0.0 0.00 0.00 0.51 89 1005.4
20260506153210 10 304 22.5 0.0 0.00 0.00 0.43 87 1005.3